Check out our new BloomSky Weather System.

Active alerts


No alerts


Thunder radar  blitzortung!


Rain radar more information rain snow radar


Visit our other weather sites:

Template documentation
and downloads

And another site



Weather Underground History page Text

Daily Summary for January 7, 2018 Units:  Metric    English   Both
« Previous Day
Next Day »
Daily Weekly Monthly Yearly Custom
  High: Low: Average:
Temperature: -17.8 °C 6.4 °C 13.2 °C
Dew Point: -17.8 °C 5.8 °C 11.9 °C
Humidity: Humidity % 79 % 92 %
Wind Speed: 0 km/h 0 km/h 2.6 km/h
Wind Gust: 0 km/h - -
Wind:- - SE
Pressure: 0 hPa 1011.7 hPa -
Precipitation: 0 mm    
Historical Graphs
 
 
Tabular Data for January 7, 2018
Time Temperature Dew Point Pressure Wind Wind Speed Wind Gust Humidity Rainfall Rate (Hourly)
-17.8 °C -17.8 °C 0 hPa Calm     Humidity % 0 mm
00:00 9.1 °C 6.7 °C 1023.9 hPa Calm   8 km/h 85 % 0 mm
00:02 9.1 °C 6.7 °C 1023.9 hPa SE 3.2 km/h 8 km/h 85 % 0 mm
00:07 9.1 °C 6.7 °C 1024.3 hPa SE 1.6 km/h 8 km/h 85 % 0 mm
00:09 9.1 °C 6.7 °C 1023.9 hPa East 1.6 km/h 8 km/h 85 % 0 mm
00:15 9.1 °C 6.9 °C 1024.3 hPa Calm   6.4 km/h 86 % 0 mm
00:20 8.9 °C 6.7 °C 1023.9 hPa Calm   4.8 km/h 86 % 0 mm
00:25 8.8 °C 6.6 °C 1023.9 hPa Calm   4.8 km/h 86 % 0 mm
00:35 8.7 °C 6.7 °C 1023.6 hPa ESE 1.6 km/h 4.8 km/h 87 % 0 mm
00:37 8.7 °C 6.7 °C 1023.6 hPa Calm   4.8 km/h 87 % 0 mm
00:38 8.7 °C 6.7 °C 1023.6 hPa Calm   4.8 km/h 87 % 0 mm
00:44 8.6 °C 6.6 °C 1023.6 hPa Calm   3.2 km/h 87 % 0 mm
00:49 8.5 °C 6.5 °C 1023.6 hPa Calm   3.2 km/h 87 % 0 mm
00:55 8.4 °C 6.5 °C 1023.2 hPa ESE 1.6 km/h 3.2 km/h 88 % 0 mm
00:59 8.5 °C 6.6 °C 1023.2 hPa Calm   3.2 km/h 88 % 0 mm
01:04 8.4 °C 6.5 °C 1023.2 hPa Calm   3.2 km/h 88 % 0 mm
01:09 8.2 °C 6.3 °C 1023.2 hPa Calm   3.2 km/h 88 % 0 mm
01:11 8.2 °C 6.5 °C 1023.2 hPa Calm   3.2 km/h 89 % 0 mm
01:16 8.1 °C 6.4 °C 1023.2 hPa Calm     89 % 0 mm
01:21 7.9 °C 6.2 °C 1023.2 hPa Calm   1.6 km/h 89 % 0 mm
01:22 7.9 °C 6.2 °C 1023.2 hPa Calm   1.6 km/h 89 % 0 mm
01:28 7.9 °C 6.4 °C 1022.9 hPa Calm   1.6 km/h 90 % 0 mm
01:33 7.8 °C 6.3 °C 1022.9 hPa Calm   1.6 km/h 90 % 0 mm
01:38 7.8 °C 6.3 °C 1022.9 hPa Calm   1.6 km/h 90 % 0 mm
01:43 7.8 °C 6.4 °C 1022.9 hPa Calm     91 % 0 mm
01:48 7.8 °C 6.4 °C 1022.6 hPa Calm     91 % 0 mm
01:53 7.7 °C 6.3 °C 1022.6 hPa Calm     91 % 0 mm
01:58 7.7 °C 6.3 °C 1022.6 hPa Calm   1.6 km/h 91 % 0 mm
01:59 7.7 °C 6.3 °C 1022.6 hPa Calm   1.6 km/h 91 % 0 mm
02:04 7.7 °C 6.5 °C 1022.6 hPa Calm   1.6 km/h 92 % 0 mm
02:06 7.7 °C 6.5 °C 1022.6 hPa Calm   1.6 km/h 92 % 0 mm
02:11 7.8 °C 6.6 °C 1022.6 hPa Calm   1.6 km/h 92 % 0 mm
02:16 7.8 °C 6.7 °C 1022.6 hPa Calm   1.6 km/h 93 % 0 mm
02:21 7.8 °C 6.7 °C 1022.6 hPa Calm   1.6 km/h 93 % 0 mm
02:26 7.9 °C 6.8 °C 1022.2 hPa Calm   1.6 km/h 93 % 0 mm
02:31 7.9 °C 6.8 °C 1022.2 hPa Calm   1.6 km/h 93 % 0 mm
02:33 7.9 °C 6.8 °C 1022.2 hPa Calm   1.6 km/h 93 % 0 mm
02:34 7.9 °C 6.8 °C 1022.2 hPa Calm   1.6 km/h 93 % 0 mm
02:39 7.9 °C 6.8 °C 1022.2 hPa Calm   1.6 km/h 93 % 0 mm
02:42 7.9 °C 6.8 °C 1022.2 hPa Calm   1.6 km/h 93 % 0 mm
02:47 7.9 °C 6.8 °C 1021.9 hPa Calm   1.6 km/h 93 % 0 mm
02:52 7.9 °C 6.8 °C 1021.9 hPa Calm     93 % 0 mm
02:53 7.9 °C 6.8 °C 1021.9 hPa Calm     93 % 0 mm
02:58 7.9 °C 7 °C 1021.9 hPa Calm   1.6 km/h 94 % 0 mm
03:03 7.9 °C 6.8 °C 1021.9 hPa Calm   1.6 km/h 93 % 0 mm
03:08 7.8 °C 6.9 °C 1021.9 hPa Calm   1.6 km/h 94 % 0 mm
03:13 7.8 °C 6.9 °C 1021.9 hPa Calm     94 % 0 mm
03:14 7.8 °C 6.9 °C 1021.9 hPa Calm     94 % 0 mm
03:19 7.7 °C 6.8 °C 1021.6 hPa Calm     94 % 0 mm
03:22 7.7 °C 6.8 °C 1021.6 hPa Calm     94 % 0 mm
03:27 7.6 °C 6.7 °C 1021.9 hPa Calm     94 % 0 mm
03:29 7.6 °C 6.7 °C 1021.6 hPa Calm     94 % 0 mm
03:34 7.6 °C 6.7 °C 1021.6 hPa Calm   1.6 km/h 94 % 0 mm
03:35 7.5 °C 6.6 °C 1021.6 hPa Calm   1.6 km/h 94 % 0 mm
03:40 7.4 °C 6.5 °C 1021.6 hPa Calm   1.6 km/h 94 % 0 mm
03:41 7.4 °C 6.5 °C 1021.6 hPa Calm   1.6 km/h 94 % 0 mm
03:46 7.4 °C 6.5 °C 1021.6 hPa Calm   1.6 km/h 94 % 0 mm
03:49 7.3 °C 6.4 °C 1021.6 hPa Calm   1.6 km/h 94 % 0 mm
03:54 7.3 °C 6.4 °C 1021.6 hPa Calm   1.6 km/h 94 % 0 mm
03:57 7.3 °C 6.6 °C 1021.6 hPa Calm   1.6 km/h 95 % 0 mm
04:02 7.2 °C 6.5 °C 1021.6 hPa Calm     95 % 0 mm
04:05 7.2 °C 6.5 °C 1021.6 hPa Calm     95 % 0 mm
04:10 7.1 °C 6.4 °C 1021.6 hPa Calm   1.6 km/h 95 % 0 mm
04:12 7.1 °C 6.4 °C 1021.6 hPa Calm   1.6 km/h 95 % 0 mm
04:17 6.9 °C 6.2 °C 1021.6 hPa Calm   1.6 km/h 95 % 0 mm
04:22 6.8 °C 6.1 °C 1021.2 hPa Calm   1.6 km/h 95 % 0 mm
04:27 6.7 °C 6 °C 1021.2 hPa Calm   1.6 km/h 95 % 0 mm
04:31 6.7 °C 6 °C 1021.2 hPa Calm   1.6 km/h 95 % 0 mm
04:35 6.7 °C 6 °C 1021.2 hPa Calm     95 % 0 mm
04:36 6.6 °C 5.9 °C 1021.2 hPa Calm     95 % 0 mm
04:42 6.6 °C 5.9 °C 1021.2 hPa Calm     95 % 0 mm
04:43 6.6 °C 5.9 °C 1021.2 hPa Calm     95 % 0 mm
04:48 6.6 °C 5.9 °C 1020.9 hPa SE 1.6 km/h   95 % 0 mm
04:51 6.6 °C 5.9 °C 1020.9 hPa Calm   1.6 km/h 95 % 0 mm
04:53 6.6 °C 6 °C 1020.9 hPa Calm   1.6 km/h 96 % 0 mm
04:58 6.6 °C 6 °C 1020.9 hPa Calm   1.6 km/h 96 % 0 mm
05:03 6.5 °C 5.9 °C 1020.9 hPa Calm   1.6 km/h 96 % 0 mm
05:05 6.5 °C 5.9 °C 1020.9 hPa Calm   1.6 km/h 96 % 0 mm
05:07 6.5 °C 5.9 °C 1020.9 hPa Calm   1.6 km/h 96 % 0 mm
05:10 6.4 °C 5.8 °C 1020.9 hPa Calm   1.6 km/h 96 % 0 mm
05:13 6.5 °C 5.9 °C 1020.9 hPa Calm   1.6 km/h 96 % 0 mm
05:17 6.6 °C 6 °C 1020.9 hPa Calm   1.6 km/h 96 % 0 mm
05:22 6.7 °C 6.1 °C 1020.9 hPa Calm   1.6 km/h 96 % 0 mm
05:23 6.7 °C 6.1 °C 1020.9 hPa Calm   1.6 km/h 96 % 0 mm
05:28 6.8 °C 6.2 °C 1020.9 hPa Calm   1.6 km/h 96 % 0 mm
05:31 6.7 °C 6.1 °C 1020.9 hPa Calm   1.6 km/h 96 % 0 mm
05:32 6.7 °C 6.1 °C 1020.9 hPa Calm   1.6 km/h 96 % 0 mm
05:38 6.7 °C 6.1 °C 1021.2 hPa Calm   1.6 km/h 96 % 0 mm
05:39 6.7 °C 6.1 °C 1021.2 hPa Calm   1.6 km/h 96 % 0 mm
05:42 6.8 °C 6.2 °C 1020.9 hPa Calm   1.6 km/h 96 % 0 mm
05:46 6.8 °C 6.2 °C 1020.9 hPa Calm   1.6 km/h 96 % 0 mm
05:48 6.8 °C 6.2 °C 1020.9 hPa Calm   1.6 km/h 96 % 0 mm
05:51 6.8 °C 6.4 °C 1020.9 hPa Calm   1.6 km/h 97 % 0 mm
05:57 6.9 °C 6.5 °C 1020.9 hPa Calm     97 % 0 mm
06:02 6.9 °C 6.5 °C 1020.9 hPa Calm     97 % 0 mm
06:03 6.9 °C 6.5 °C 1020.9 hPa Calm     97 % 0 mm
06:08 7 °C 6.6 °C 1020.5 hPa Calm     97 % 0 mm
06:09 7.1 °C 6.7 °C 1020.5 hPa Calm     97 % 0 mm
06:14 7.1 °C 6.7 °C 1020.5 hPa Calm     97 % 0 mm
06:15 7.1 °C 6.7 °C 1020.5 hPa Calm     97 % 0 mm
06:16 7.1 °C 6.7 °C 1020.5 hPa Calm     97 % 0 mm
06:21 7.2 °C 6.8 °C 1020.5 hPa Calm     97 % 0 mm
06:26 7.3 °C 6.9 °C 1020.5 hPa Calm   1.6 km/h 97 % 0 mm
06:29 7.4 °C 7 °C 1020.5 hPa Calm   1.6 km/h 97 % 0 mm
06:34 7.7 °C 7.4 °C 1020.5 hPa Calm   1.6 km/h 98 % 0 mm
06:39 7.8 °C 7.4 °C 1020.5 hPa Calm   1.6 km/h 97 % 0 mm
06:44 7.8 °C 7.4 °C 1020.5 hPa Calm   1.6 km/h 97 % 0 mm
06:49 7.9 °C 7.5 °C 1020.5 hPa Calm   1.6 km/h 97 % 0 mm
06:50 7.9 °C 7.5 °C 1020.5 hPa Calm   1.6 km/h 97 % 0 mm
06:55 7.9 °C 7.5 °C 1020.5 hPa Calm   1.6 km/h 97 % 0 mm
07:00 7.9 °C 7.5 °C 1020.5 hPa Calm   1.6 km/h 97 % 0 mm
07:06 7.9 °C 7.5 °C 1020.5 hPa Calm   1.6 km/h 97 % 0 mm
07:07 7.9 °C 7.5 °C 1020.5 hPa Calm   1.6 km/h 97 % 0 mm
07:12 7.8 °C 7.4 °C 1020.5 hPa Calm   1.6 km/h 97 % 0 mm
07:17 7.8 °C 7.4 °C 1020.2 hPa Calm     97 % 0 mm
07:22 7.9 °C 7.5 °C 1020.2 hPa Calm     97 % 0 mm
07:27 8.2 °C 7.9 °C 1020.2 hPa Calm   1.6 km/h 98 % 0 mm
07:32 8.3 °C 8 °C 1020.2 hPa Calm   1.6 km/h 98 % 0 mm
07:37 8.5 °C 8.2 °C 1020.2 hPa Calm   1.6 km/h 98 % 0 mm
07:42 8.8 °C 8.5 °C 1020.2 hPa Calm   3.2 km/h 98 % 0 mm
07:45 8.9 °C 8.6 °C 1020.2 hPa ESE 1.6 km/h 3.2 km/h 98 % 0 mm
07:50 9.3 °C 9 °C 1020.2 hPa Calm   3.2 km/h 98 % 0 mm
07:55 9.5 °C 9.2 °C 1020.2 hPa South 3.2 km/h 3.2 km/h 98 % 0 mm
07:57 9.6 °C 9.3 °C 1020.2 hPa SE 1.6 km/h 3.2 km/h 98 % 0 mm
07:58 9.6 °C 9.3 °C 1020.2 hPa Calm   3.2 km/h 98 % 0 mm
08:03 9.8 °C 9.5 °C 1020.2 hPa East 1.6 km/h 4.8 km/h 98 % 0 mm
08:06 9.9 °C 9.6 °C 1020.2 hPa Calm   4.8 km/h 98 % 0 mm
08:11 10.1 °C 9.8 °C 1020.2 hPa SE 1.6 km/h 4.8 km/h 98 % 0 mm
08:12 10.1 °C 9.8 °C 1020.2 hPa ESE 1.6 km/h 4.8 km/h 98 % 0 mm
08:17 10.4 °C 10.1 °C 1020.2 hPa Calm   8 km/h 98 % 0 mm
08:22 10.7 °C 10.5 °C 1020.2 hPa ESE 3.2 km/h 8 km/h 99 % 0 mm
08:26 10.9 °C 10.7 °C 1020.2 hPa ESE 3.2 km/h 8 km/h 99 % 0 mm
08:27 10.9 °C 10.7 °C 1020.2 hPa ESE 3.2 km/h 8 km/h 99 % 0 mm
08:32 11.2 °C 11 °C 1020.2 hPa ESE 3.2 km/h 8 km/h 99 % 0 mm
08:37 11.4 °C 11.2 °C 1020.2 hPa SSE 4.8 km/h 9.7 km/h 99 % 0 mm
08:39 11.5 °C 11.3 °C 1020.2 hPa SE 4.8 km/h 9.7 km/h 99 % 0 mm
08:42 11.7 °C 11.5 °C 1020.2 hPa ESE 8 km/h 9.7 km/h 99 % 0 mm
08:44 11.8 °C 11.6 °C 1019.9 hPa ESE 4.8 km/h 9.7 km/h 99 % 0 mm
08:49 11.9 °C 11.7 °C 1019.9 hPa ESE 8 km/h 12.9 km/h 99 % 0 mm
08:54 12.1 °C 11.9 °C 1019.5 hPa SSE 9.7 km/h 12.9 km/h 99 % 0 mm
08:56 12.2 °C 12 °C 1019.5 hPa SSW 6.4 km/h 17.7 km/h 99 % 0 mm
09:01 12.3 °C 12.1 °C 1019.5 hPa SE 6.4 km/h 17.7 km/h 99 % 0 mm
09:03 12.4 °C 12.2 °C 1019.5 hPa SE 1.6 km/h 17.7 km/h 99 % 0 mm
09:08 12.6 °C 12.4 °C 1019.9 hPa SE 4.8 km/h 17.7 km/h 99 % 0 mm
09:13 12.8 °C 12.6 °C 1019.9 hPa East 1.6 km/h 17.7 km/h 99 % 0 mm
09:18 13 °C 12.8 °C 1020.2 hPa South 4.8 km/h 12.9 km/h 99 % 0 mm
09:23 13.2 °C 13 °C 1019.9 hPa SE 6.4 km/h 12.9 km/h 99 % 0 mm
09:28 13.3 °C 13.1 °C 1019.9 hPa SE 4.8 km/h 14.5 km/h 99 % 0 mm
09:33 13.4 °C 13.1 °C 1019.9 hPa SSE 4.8 km/h 14.5 km/h 98 % 0 mm
09:38 13.5 °C 13.2 °C 1019.5 hPa SSE 4.8 km/h 14.5 km/h 98 % 0 mm
09:43 13.7 °C 13.4 °C 1019.9 hPa SE 4.8 km/h 14.5 km/h 98 % 0 mm
09:46 13.7 °C 13.4 °C 1019.9 hPa SSE 4.8 km/h 14.5 km/h 98 % 0 mm
09:51 13.8 °C 13.5 °C 1019.5 hPa SE 6.4 km/h 12.9 km/h 98 % 0 mm
09:56 13.9 °C 13.6 °C 1019.5 hPa South 4.8 km/h 11.3 km/h 98 % 0 mm
09:58 14 °C 13.7 °C 1019.9 hPa SSE 3.2 km/h 11.3 km/h 98 % 0 mm
10:01 14.1 °C 13.8 °C 1019.9 hPa South 4.8 km/h 11.3 km/h 98 % 0 mm
10:06 14.2 °C 13.9 °C 1019.5 hPa East 11.3 km/h 11.3 km/h 98 % 0 mm
10:10 14.3 °C 14 °C 1019.5 hPa ESE 6.4 km/h 11.3 km/h 98 % 0 mm
10:11 14.3 °C 14 °C 1019.5 hPa SSE 6.4 km/h 12.9 km/h 98 % 0 mm
10:16 14.4 °C 14.1 °C 1019.5 hPa SE 4.8 km/h 12.9 km/h 98 % 0 mm
10:21 14.6 °C 14.3 °C 1019.5 hPa SSE 6.4 km/h 12.9 km/h 98 % 0 mm
10:22 14.6 °C 14.3 °C 1019.5 hPa SE 4.8 km/h 12.9 km/h 98 % 0 mm
10:24 14.6 °C 14.3 °C 1019.5 hPa SE 4.8 km/h 12.9 km/h 98 % 0 mm
10:29 14.8 °C 14.3 °C 1019.5 hPa SSE 3.2 km/h 12.9 km/h 97 % 0 mm
10:34 14.9 °C 14.6 °C 1019.5 hPa SE 4.8 km/h 11.3 km/h 98 % 0 mm
10:38 15.1 °C 14.6 °C 1019.5 hPa SE 4.8 km/h 11.3 km/h 97 % 0 mm
10:43 15.3 °C 14.8 °C 1019.2 hPa ESE 9.7 km/h 11.3 km/h 97 % 0 mm
10:45 15.3 °C 14.8 °C 1019.5 hPa East 14.5 km/h 14.5 km/h 97 % 0 mm
10:50 15.4 °C 14.9 °C 1019.5 hPa SSE 3.2 km/h 14.5 km/h 97 % 0 mm
10:51 15.4 °C 14.9 °C 1019.5 hPa SE 8 km/h 14.5 km/h 97 % 0 mm
10:56 15.6 °C 15 °C 1019.5 hPa SE 3.2 km/h 14.5 km/h 96 % 0 mm
11:01 15.7 °C 15.1 °C 1019.5 hPa SSW 3.2 km/h 12.9 km/h 96 % 0 mm
11:05 15.8 °C 15.2 °C 1019.5 hPa SE 6.4 km/h 12.9 km/h 96 % 0 mm
11:10 15.9 °C 15.3 °C 1019.5 hPa South 6.4 km/h 11.3 km/h 96 % 0 mm
11:14 16 °C 15.2 °C 1019.5 hPa SE 12.9 km/h 12.9 km/h 95 % 0 mm
11:19 16.1 °C 15.3 °C 1019.5 hPa SSE 8 km/h 14.5 km/h 95 % 0 mm
11:24 16.2 °C 15.4 °C 1019.2 hPa SE 12.9 km/h 14.5 km/h 95 % 0 mm
11:29 16.3 °C 15.3 °C 1019.2 hPa SE 6.4 km/h 14.5 km/h 94 % 0 mm
11:35 16.3 °C 15.3 °C 1018.8 hPa SE 8 km/h 12.9 km/h 94 % 0 mm
11:39 16.6 °C 15.6 °C 1018.8 hPa ESE 9.7 km/h 12.9 km/h 94 % 0 mm
11:44 16.9 °C 15.9 °C 1018.5 hPa SSE 4.8 km/h 12.9 km/h 94 % 0 mm
11:49 17.2 °C 15.9 °C 1018.5 hPa SE 6.4 km/h 12.9 km/h 92 % 0 mm
11:54 17.5 °C 16.2 °C 1018.2 hPa East 9.7 km/h 16.1 km/h 92 % 0 mm
11:59 17.7 °C 15.9 °C 1017.8 hPa SE 11.3 km/h 16.1 km/h 89 % 0 mm
12:00 17.8 °C 16 °C 1017.8 hPa SSE 11.3 km/h 17.7 km/h 89 % 0 mm
12:06 18.1 °C 16.1 °C 1017.5 hPa SE 11.3 km/h 17.7 km/h 88 % 0 mm
12:09 18.3 °C 16.3 °C 1017.5 hPa South 8 km/h 17.7 km/h 88 % 0 mm
12:14 18.8 °C 16.6 °C 1017.2 hPa South 9.7 km/h 17.7 km/h 87 % 0 mm
12:19 19.1 °C 16.5 °C 1017.2 hPa South 8 km/h 17.7 km/h 85 % 0 mm
12:25 19.2 °C 16.6 °C 1017.2 hPa SSW 3.2 km/h 17.7 km/h 85 % 0 mm
12:28 19.4 °C 16.4 °C 1016.8 hPa SE 4.8 km/h 14.5 km/h 83 % 0 mm
12:33 19.6 °C 16.6 °C 1016.5 hPa SSE 9.7 km/h 19.3 km/h 83 % 0 mm
12:43 19.6 °C 16.4 °C 1016.1 hPa SSE 9.7 km/h 19.3 km/h 82 % 0 mm
12:47 19.6 °C 16.4 °C 1015.8 hPa SSE 8 km/h 17.7 km/h 82 % 0 mm
12:48 19.6 °C 16.4 °C 1015.8 hPa SSE 9.7 km/h 17.7 km/h 82 % 0 mm
12:53 19.7 °C 16.3 °C 1015.5 hPa SE 3.2 km/h 17.7 km/h 81 % 0 mm
12:58 19.8 °C 16.4 °C 1015.5 hPa SSE 9.7 km/h 17.7 km/h 81 % 0 mm
13:00 19.8 °C 16.2 °C 1015.5 hPa South 9.7 km/h 17.7 km/h 80 % 0 mm
13:05 19.8 °C 16.2 °C 1015.5 hPa SE 17.7 km/h 17.7 km/h 80 % 0 mm
13:09 19.8 °C 16.2 °C 1015.1 hPa SSE 11.3 km/h 17.7 km/h 80 % 0 mm
13:14 19.8 °C 16.2 °C 1015.1 hPa SSW 1.6 km/h 20.9 km/h 80 % 0 mm
13:19 19.9 °C 16.1 °C 1015.1 hPa SSE 12.9 km/h 20.9 km/h 79 % 0 mm
13:24 20.1 °C 16.5 °C 1014.8 hPa SSE 6.4 km/h 20.9 km/h 80 % 0 mm
13:29 20.2 °C 16.4 °C 1014.8 hPa SW 4.8 km/h 19.3 km/h 79 % 0 mm
13:34 20.3 °C 16.5 °C 1014.8 hPa SE 6.4 km/h 19.3 km/h 79 % 0 mm
13:37 20.3 °C 16.5 °C 1014.8 hPa SSE 4.8 km/h 16.1 km/h 79 % 0 mm
13:42 20.2 °C 16.4 °C 1014.4 hPa ESE 12.9 km/h 12.9 km/h 79 % 0 mm
13:47 20.1 °C 16.3 °C 1014.4 hPa SE 4.8 km/h 14.5 km/h 79 % 0 mm
13:52 20.1 °C 16.5 °C 1014.4 hPa SSE 8 km/h 14.5 km/h 80 % 0 mm
13:53 20.1 °C 16.5 °C 1014.4 hPa ESE 6.4 km/h 14.5 km/h 80 % 0 mm
13:58 19.9 °C 16.3 °C 1014.4 hPa SSE 4.8 km/h 14.5 km/h 80 % 0 mm
14:03 19.8 °C 16.4 °C 1014.1 hPa South 3.2 km/h 12.9 km/h 81 % 0 mm
14:08 19.8 °C 16.4 °C 1014.1 hPa SE 4.8 km/h 11.3 km/h 81 % 0 mm
14:13 19.7 °C 16.3 °C 1013.8 hPa SE 6.4 km/h 12.9 km/h 81 % 0 mm
14:18 19.6 °C 16.2 °C 1013.8 hPa SSE 11.3 km/h 16.1 km/h 81 % 0 mm
14:23 19.6 °C 16.4 °C 1013.8 hPa SSE 3.2 km/h 16.1 km/h 82 % 0 mm
14:26 19.6 °C 16.4 °C 1013.8 hPa SSE 6.4 km/h 16.1 km/h 82 % 0 mm
14:31 19.5 °C 16.3 °C 1013.8 hPa SSE 6.4 km/h 16.1 km/h 82 % 0 mm
14:37 19.4 °C 16.2 °C 1013.8 hPa ESE 4.8 km/h 14.5 km/h 82 % 0 mm
14:39 19.4 °C 16.2 °C 1013.8 hPa SE 1.6 km/h 14.5 km/h 82 % 0 mm
14:44 19.4 °C 16.2 °C 1013.4 hPa SE 4.8 km/h 9.7 km/h 82 % 0 mm
14:49 19.3 °C 16.3 °C 1013.4 hPa SSE 3.2 km/h 9.7 km/h 83 % 0 mm
14:55 19.2 °C 16.2 °C 1013.4 hPa East 4.8 km/h 9.7 km/h 83 % 0 mm
15:00 19.2 °C 16.2 °C 1013.4 hPa SSE 1.6 km/h 9.7 km/h 83 % 0 mm
15:05 19.1 °C 16.1 °C 1013.1 hPa SE 3.2 km/h 9.7 km/h 83 % 0 mm
15:10 19.1 °C 16.3 °C 1013.1 hPa ESE 3.2 km/h 6.4 km/h 84 % 0 mm
15:11 19.1 °C 16.3 °C 1013.1 hPa ESE 1.6 km/h 6.4 km/h 84 % 0 mm
15:16 19 °C 16.2 °C 1013.1 hPa Calm   6.4 km/h 84 % 0 mm
15:22 18.9 °C 16.1 °C 1013.1 hPa ESE 1.6 km/h 6.4 km/h 84 % 0 mm
15:27 18.9 °C 16.1 °C 1013.1 hPa SE 1.6 km/h 6.4 km/h 84 % 0 mm
15:32 18.9 °C 16.3 °C 1013.1 hPa Calm   6.4 km/h 85 % 0 mm
15:33 18.9 °C 16.3 °C 1013.1 hPa South 3.2 km/h 6.4 km/h 85 % 0 mm
15:38 18.8 °C 16.2 °C 1013.1 hPa SE 4.8 km/h 6.4 km/h 85 % 0 mm
15:42 18.8 °C 16.2 °C 1013.1 hPa SSE 3.2 km/h 6.4 km/h 85 % 0 mm
15:43 18.8 °C 16.2 °C 1013.1 hPa SE 4.8 km/h 6.4 km/h 85 % 0 mm
15:49 18.8 °C 16.2 °C 1013.1 hPa SE 3.2 km/h 6.4 km/h 85 % 0 mm
15:54 18.7 °C 16.3 °C 1013.1 hPa South 1.6 km/h 6.4 km/h 86 % 0 mm
15:59 18.6 °C 16.2 °C 1013.4 hPa SE 6.4 km/h 8 km/h 86 % 0 mm
16:04 18.6 °C 16.2 °C 1013.4 hPa SE 4.8 km/h 8 km/h 86 % 0 mm
16:09 18.5 °C 16.1 °C 1013.4 hPa SE 3.2 km/h 8 km/h 86 % 0 mm
16:12 18.4 °C 16 °C 1013.4 hPa SE 3.2 km/h 8 km/h 86 % 0 mm
16:17 18.4 °C 16.2 °C 1013.4 hPa Calm   6.4 km/h 87 % 0 mm
16:22 18.3 °C 16.1 °C 1013.8 hPa SE 1.6 km/h 6.4 km/h 87 % 0 mm
16:27 18.3 °C 16.1 °C 1013.8 hPa ESE 1.6 km/h 6.4 km/h 87 % 0 mm
16:32 18.3 °C 16.1 °C 1013.8 hPa Calm   4.8 km/h 87 % 0 mm
16:37 18.2 °C 16 °C 1013.8 hPa Calm   3.2 km/h 87 % 0 mm
16:41 18.2 °C 16.2 °C 1013.8 hPa Calm   3.2 km/h 88 % 0 mm
16:46 18.1 °C 16.1 °C 1013.8 hPa Calm   1.6 km/h 88 % 0 mm
16:50 18 °C 16 °C 1013.4 hPa ESE 1.6 km/h 1.6 km/h 88 % 0 mm
16:52 18 °C 16 °C 1013.4 hPa ESE 1.6 km/h 1.6 km/h 88 % 0 mm
17:02 17.8 °C 15.8 °C 1013.4 hPa Calm   4.8 km/h 88 % 0 mm
17:07 17.8 °C 16 °C 1013.4 hPa SE 3.2 km/h 4.8 km/h 89 % 0 mm
17:08 17.7 °C 15.9 °C 1013.4 hPa Calm   4.8 km/h 89 % 0 mm
17:12 17.7 °C 15.9 °C 1013.4 hPa SE 1.6 km/h 4.8 km/h 89 % 0 mm
17:16 17.6 °C 15.8 °C 1013.4 hPa Calm   3.2 km/h 89 % 0 mm
17:18 17.6 °C 15.8 °C 1013.4 hPa Calm   3.2 km/h 89 % 0 mm
17:23 17.6 °C 15.8 °C 1013.4 hPa Calm   3.2 km/h 89 % 0 mm
17:28 17.4 °C 15.7 °C 1013.4 hPa Calm   3.2 km/h 90 % 0 mm
17:33 17.4 °C 15.7 °C 1013.4 hPa ESE 1.6 km/h 3.2 km/h 90 % 0 mm
17:34 17.4 °C 15.7 °C 1013.4 hPa Calm   3.2 km/h 90 % 0 mm
17:39 17.3 °C 15.6 °C 1013.4 hPa Calm   1.6 km/h 90 % 0 mm
17:44 17.3 °C 15.6 °C 1013.4 hPa Calm   1.6 km/h 90 % 0 mm
17:47 17.3 °C 15.8 °C 1013.4 hPa Calm   1.6 km/h 91 % 0 mm
17:52 17.3 °C 15.8 °C 1013.4 hPa East 1.6 km/h 1.6 km/h 91 % 0 mm
17:54 17.3 °C 15.8 °C 1013.4 hPa Calm   1.6 km/h 91 % 0 mm
17:59 17.3 °C 15.8 °C 1013.8 hPa Calm   1.6 km/h 91 % 0 mm
18:01 17.2 °C 15.7 °C 1013.8 hPa Calm   1.6 km/h 91 % 0 mm
18:06 17.2 °C 15.7 °C 1013.8 hPa Calm   1.6 km/h 91 % 0 mm
18:09 17.2 °C 15.7 °C 1013.8 hPa Calm   1.6 km/h 91 % 0 mm
18:14 17.2 °C 15.7 °C 1013.8 hPa Calm   1.6 km/h 91 % 0 mm
18:19 17.2 °C 15.7 °C 1013.8 hPa Calm   1.6 km/h 91 % 0 mm
18:24 17.2 °C 15.7 °C 1013.8 hPa Calm   1.6 km/h 91 % 0 mm
18:29 17.2 °C 15.7 °C 1013.8 hPa Calm   1.6 km/h 91 % 0 mm
18:30 17.2 °C 15.7 °C 1013.8 hPa Calm   1.6 km/h 91 % 0 mm
18:35 17.2 °C 15.7 °C 1013.8 hPa Calm   1.6 km/h 91 % 0 mm
18:40 17.2 °C 15.7 °C 1013.8 hPa ESE 1.6 km/h 1.6 km/h 91 % 0 mm
18:45 17.1 °C 15.6 °C 1013.8 hPa Calm   1.6 km/h 91 % 0 mm
18:48 17.1 °C 15.8 °C 1013.8 hPa SE 1.6 km/h 1.6 km/h 92 % 0 mm
18:51 17.1 °C 15.8 °C 1013.8 hPa SE 1.6 km/h 1.6 km/h 92 % 0 mm
18:56 17.1 °C 15.8 °C 1013.8 hPa Calm   1.6 km/h 92 % 0 mm
19:01 17.1 °C 15.8 °C 1013.8 hPa Calm   1.6 km/h 92 % 0 mm
19:06 17.1 °C 15.8 °C 1013.8 hPa Calm   1.6 km/h 92 % 0 mm
19:09 17 °C 15.7 °C 1013.8 hPa Calm   1.6 km/h 92 % 0 mm
19:14 17 °C 15.7 °C 1013.8 hPa Calm   1.6 km/h 92 % 0 mm
19:15 16.9 °C 15.6 °C 1013.8 hPa Calm   1.6 km/h 92 % 0 mm
19:20 16.9 °C 15.6 °C 1013.8 hPa Calm   1.6 km/h 92 % 0 mm
19:21 16.9 °C 15.6 °C 1013.8 hPa Calm   1.6 km/h 92 % 0 mm
19:26 16.9 °C 15.6 °C 1013.8 hPa Calm   1.6 km/h 92 % 0 mm
19:31 16.8 °C 15.5 °C 1013.8 hPa Calm   1.6 km/h 92 % 0 mm
19:36 16.8 °C 15.5 °C 1013.8 hPa Calm   1.6 km/h 92 % 0 mm
19:39 16.8 °C 15.5 °C 1013.8 hPa Calm   1.6 km/h 92 % 0 mm
19:44 16.7 °C 15.6 °C 1013.4 hPa SE 3.2 km/h 3.2 km/h 93 % 0 mm
19:46 16.7 °C 15.6 °C 1013.4 hPa SE 3.2 km/h 4.8 km/h 93 % 0 mm
19:51 16.8 °C 15.7 °C 1013.1 hPa SE 4.8 km/h 11.3 km/h 93 % 0 mm
19:55 16.9 °C 15.8 °C 1013.1 hPa NE 1.6 km/h 11.3 km/h 93 % 0 mm
20:00 16.9 °C 15.8 °C 1013.4 hPa NW 3.2 km/h 11.3 km/h 93 % 0 mm
20:05 16.9 °C 15.8 °C 1013.4 hPa Calm   9.7 km/h 93 % 0 mm
20:12 16.9 °C 15.8 °C 1013.4 hPa SSE 1.6 km/h 4.8 km/h 93 % 0 mm
20:15 16.9 °C 15.8 °C 1013.4 hPa SSW 3.2 km/h 4.8 km/h 93 % 0 mm
20:21 17 °C 16 °C 1013.1 hPa SSE 3.2 km/h 11.3 km/h 94 % 0 mm
20:26 17.1 °C 16.1 °C 1013.1 hPa South 9.7 km/h 11.3 km/h 94 % 0 mm
20:31 17.1 °C 16.1 °C 1012.8 hPa SSE 6.4 km/h 11.3 km/h 94 % 0 mm
20:36 17.1 °C 16.1 °C 1012.8 hPa South 6.4 km/h 11.3 km/h 94 % 0 mm
20:41 17 °C 16 °C 1012.4 hPa SE 4.8 km/h 11.3 km/h 94 % 0 mm
20:46 16.9 °C 16.1 °C 1012.4 hPa ESE 4.8 km/h 12.9 km/h 95 % 0 mm
20:51 16.9 °C 16.1 °C 1012.4 hPa SSE 4.8 km/h 12.9 km/h 95 % 0 mm
20:56 16.9 °C 16.1 °C 1012.1 hPa SE 3.2 km/h 12.9 km/h 95 % 0 mm
21:01 16.8 °C 16 °C 1012.1 hPa SE 6.4 km/h 11.3 km/h 95 % 0 mm
21:06 16.8 °C 16 °C 1012.1 hPa SE 3.2 km/h 11.3 km/h 95 % 0 mm
21:09 16.8 °C 16 °C 1012.1 hPa ESE 3.2 km/h 11.3 km/h 95 % 0 mm
21:12 16.8 °C 16 °C 1012.1 hPa Calm   11.3 km/h 95 % 0 mm
21:17 16.8 °C 16 °C 1011.7 hPa SE 3.2 km/h 11.3 km/h 95 % 0 mm
21:23 16.7 °C 15.9 °C 1011.7 hPa South 3.2 km/h 8 km/h 95 % 0 mm
21:28 16.7 °C 16.1 °C 1012.1 hPa East 3.2 km/h 8 km/h 96 % 0 mm
21:34 16.7 °C 16.1 °C 1012.1 hPa Calm   8 km/h 96 % 0 mm
21:43 16.7 °C 16.1 °C 1011.7 hPa SE 4.8 km/h 8 km/h 96 % 0 mm
21:56 16.7 °C 16.1 °C 1011.7 hPa SSE 3.2 km/h 14.5 km/h 96 % 0 mm
22:01 16.7 °C 16.1 °C 1012.1 hPa Calm   14.5 km/h 96 % 0 mm
22:15 16.7 °C 16.2 °C 1012.1 hPa NNW 3.2 km/h 12.9 km/h 97 % 0 mm
22:30 16.7 °C 16.1 °C 1012.1 hPa NNE 1.6 km/h 16.1 km/h 96 % 0 mm
22:41 16.3 °C 15.7 °C 1011.7 hPa Calm   9.7 km/h 96 % 0 mm
22:54 16.5 °C 16 °C 1011.7 hPa SE 3.2 km/h 8 km/h 97 % 0 mm
23:03 16.7 °C 16.4 °C 1012.1 hPa West 1.6 km/h 8 km/h 98 % 0 mm
23:08 16.9 °C 16.6 °C 1011.7 hPa SSW 1.6 km/h 8 km/h 98 % 0 mm
23:33 17.1 °C 16.8 °C 1012.1 hPa NNW 4.8 km/h 6.4 km/h 98 % 0 mm
23:46 16.9 °C 16.6 °C 1012.1 hPa Calm   8 km/h 98 % 0 mm
23:56 17.1 °C 16.8 °C 1012.1 hPa Calm   4.8 km/h 98 % 0 mm
Spring, Texas: Villages of Bridgestone
Compliments of Weather Underground - 3 mb

Script developed by  Jim McMurry - jmcmurry@mwt.net Adapted for the template by  Wim van der Kuil - Leuven-Template.eu

You find our weather info also at:

UK Metoffice

WeatherCloud

Weather Underground

Mid-South Weather Network

AWEKAS

Citizen Weather Observer Program (CWOP)

HAMweather, WeatherForYou, PWS Weather

Equipment we use:

Weather-station
Davis Vantage Vue

Weather-program
Meteohub

Weather-server
Debian 7.9 x86 (Guest)

Provider
DreamHost

Davis Vantage Vue

Meteohub

Debian 7.9 x86 (Guest)

DreamHost